Back to catalog

STARLINK-11580

AliveCommunicationsVLEO
NORAD 63011·PAYLOAD·🇺🇸 United States

Launched Feb 15, 2025 from Cape Canaveral Space Force Station

Loading…

Next Passes (next 24 hours)

TLE

FreshSource: CelesTrak SupGP

Epoch: Sep 15, 2026, 02:54 UTC

1 63011C 25032G   26258.12131944  .00110690  00000+0  85928-3 0  2580
2 63011  43.0002 133.2937 0001651 269.0185 280.5444 15.70794853    11

Track STARLINK-11580 in real time with AllMySat

Download on the App Store